DELTA 1 DEB, 10767

Orbit data source: Space-Track

DELTA 1 DEB, 10767 is space debris in SSO originally from a launch on Thu, 29 Jul 1976 UTC launched from the Air Force Western Test Range (AFWTR). Debris objects in space refer to the collection of defunct objects orbiting the Earth. Examples of debris include non-operational satellites, rocket bodies, and fragments generated from explosions, collisions, or faulty payload assembly.

Loading next visibility...
Identifier
10767, 1976-077BQ
Orbit
SSO
Country
Flag of USUS
Related business
Manufacturer
Unknown
Mission
Spacecraft
Bus & Motor
Unknown
Mass
Unknown
Launch date (UTC)
1976-07-29 (50 years ago)
Launch vehicle
Unknown
Launch site
Air Force Western Test Range (AFWTR)
Object type
Payload
Rocket body
Debris
Shape & HBR
Unknown shape, 0.4 m
Radar Cross Section
Medium (>0.1 m² and <1 m²)

Expand to show TLE details & history
Last TLE update: 12 hours ago

TLE from 12 hours ago
0 DELTA 1 DEB
1 10767U 76077BQ  26255.93287582 -.00000020  00000-0  21427-3 0  9994
2 10767 102.4376 241.7225 0065215  83.8234 335.9561 12.31965236253679
Epoch: 2026-09-12T22:23Z
TLE epoch observation values (Epoch: 2026-09-12T22:23:20.470Z)
Latitude
57.35783°
Longitude
-106.08438°
Altitude
1,503.136 km
Speed
7.139 km/s
True Right ascension
14h 46m 44s
True Declination
57° 12' 58"
Sunlit
Object was in daylight at epoch
Visualization orbit readout
Latitude
Unknown
Longitude
Unknown
Altitude
Unknown
Speed
Unknown
Apparent Right ascension
Unknown
Apparent Declination
Unknown
Sunlit
N/A
Visualization observer readout
Local Sidereal Time
03:06:53
Azimuth
Unknown
Elevation
Unknown
Doppler factor
Unknown
Orbital elements
Apogee altitude
1,590.088 km
Perigee altitude
1,486.832 km
Semi-major axis
7,916.597 km
Eccentricity
0.00652
Inclination
102.4376°
RAAN
241.7225°
Arg. of periapsis
83.8234°
True anomaly
335.64934°
Mean anomaly
335.9561°
Eccentric anomaly
335.80295°
Mean motion
3.08131 °/min
Orbital period
116.83 mins
BSTAR
0.00021427
Loading maneuver chart data...
Computing Atmospheric mass density...
Loading historical data...
Loading historical data...
Loading historical data...
Loading historical data...
Loading historical data...
Loading historical data...
Loading historical data...

Documentation

Showing up to 5 results
|